This is the latest recevied weather packets stored in our database for station/object VE1DX. If no packets are shown the sender has not sent any weather packets the latest 10 day(s).
| Time | Temp. | Humidity | Pressure | Rain* | Wind** | Luminosity | Snow |
|---|---|---|---|---|---|---|---|
| 1787865015 | 23.89° C | 77% | 1019.7 hPa | 0 mm | - | - | - |
| 1787864715 | 23.89° C | 79% | 1019.7 hPa | 0 mm | - | - | - |
| 1787864415 | 23.89° C | 78% | 1019.7 hPa | 0 mm | - | - | - |
| 1787864115 | 23.89° C | 78% | 1019.8 hPa | 0 mm | - | - | - |
| 1787863815 | 23.89° C | 79% | 1019.8 hPa | 0 mm | - | - | - |
| 1787863515 | 23.33° C | 78% | 1019.7 hPa | 0 mm | - | - | - |
| 1787863216 | 23.33° C | 78% | 1019.9 hPa | 0 mm | - | - | - |
| 1787862915 | 23.89° C | 77% | 1020 hPa | 0 mm | - | - | - |
| 1787862615 | 24.44° C | 75% | 1020 hPa | 0 mm | - | - | - |
| 1787862315 | 24.44° C | 75% | 1019.9 hPa | 0 mm | - | - | - |
| 1787862015 | 24.44° C | 75% | 1019.9 hPa | 0 mm | - | - | - |
| 1787861716 | 25° C | 74% | 1019.8 hPa | 0 mm | - | - | - |
| 1787861416 | 25.56° C | 72% | 1019.8 hPa | 0 mm | - | - | - |
| 1787861122 | 25.56° C | 71% | 1019.8 hPa | 0 mm | - | - | - |
| 1787860816 | 25.56° C | 73% | 1019.9 hPa | 0 mm | - | - | - |
| 1787860515 | 25.56° C | 72% | 1019.9 hPa | 0 mm | - | - | - |
| 1787860215 | 25.56° C | 72% | 1019.9 hPa | 0 mm | - | - | - |
| 1787859916 | 25.56° C | 72% | 1019.9 hPa | 0 mm | - | - | - |
| 1787859615 | 25° C | 72% | 1019.8 hPa | 0 mm | - | - | - |
| 1787859316 | 25° C | 69% | 1019.7 hPa | 0 mm | - | - | - |
| 1787859015 | 25.56° C | 67% | 1019.8 hPa | 0 mm | - | - | - |
| 1787858716 | 25.56° C | 71% | 1019.8 hPa | 0 mm | - | - | - |
| 1787858415 | 25.56° C | 72% | 1019.7 hPa | 0 mm | - | - | - |
| 1787858115 | 25.56° C | 76% | 1019.9 hPa | 0 mm | - | - | - |
| 1787857815 | 25.56° C | 76% | 1019.9 hPa | 0 mm | - | - | - |
* Rain latest hour (hover to see other rain measurements)
** Current wind speed in m/s (hover to see current wind gust speed)